TimeMDT,TemperatureF,Dew PointF,Humidity,Sea Level PressureIn,VisibilityMPH,Wind Direction,Wind SpeedMPH,Gust SpeedMPH,PrecipitationIn,Events,Conditions,WindDirDegrees,DateUTC
12:53 AM,66.9,44.1,44,29.91,10.0,East,5.8,-,N/A,,Clear,100,2013-09-07 06:53:00
1:53 AM,61.0,45.0,56,29.93,10.0,Calm,Calm,-,N/A,,Clear,0,2013-09-07 07:53:00
2:53 AM,61.0,46.0,58,29.94,10.0,North,4.6,-,N/A,,Clear,350,2013-09-07 08:53:00
3:53 AM,59.0,45.0,60,29.95,10.0,WSW,3.5,-,N/A,,Clear,240,2013-09-07 09:53:00
4:53 AM,59.0,45.0,60,29.95,10.0,WNW,3.5,-,N/A,,Clear,300,2013-09-07 10:53:00
5:53 AM,60.1,44.1,55,29.96,10.0,Calm,Calm,-,N/A,,Clear,0,2013-09-07 11:53:00
6:53 AM,61.0,45.0,56,29.98,10.0,Calm,Calm,-,N/A,,Clear,0,2013-09-07 12:53:00
7:53 AM,64.0,45.0,50,29.99,10.0,Calm,Calm,-,N/A,,Clear,0,2013-09-07 13:53:00
8:53 AM,68.0,46.0,45,30.02,10.0,West,6.9,-,N/A,,Clear,260,2013-09-07 14:53:00
9:05 AM,66.2,46.4,49,30.20,10.0,Calm,Calm,-,N/A,Thunderstorm,Mostly Cloudy,0,2013-09-07 15:05:00
9:20 AM,68.0,46.4,46,30.20,10.0,North,4.6,-,N/A,,Mostly Cloudy,350,2013-09-07 15:20:00
9:53 AM,68.0,50.0,52,30.03,10.0,West,6.9,-,0.00,,Overcast,260,2013-09-07 15:53:00
10:53 AM,71.1,48.9,45,30.02,10.0,Calm,Calm,-,N/A,,Partly Cloudy,0,2013-09-07 16:53:00
11:53 AM,80.1,48.9,34,29.99,10.0,NNE,3.5,-,N/A,,Clear,20,2013-09-07 17:53:00
12:53 PM,86.0,46.9,26,29.95,10.0,SSW,6.9,-,N/A,,Clear,210,2013-09-07 18:53:00
1:53 PM,87.1,45.0,23,29.95,10.0,SSE,8.1,-,N/A,,Clear,160,2013-09-07 19:53:00
2:53 PM,90.0,44.1,20,29.91,10.0,SSE,10.4,-,N/A,,Clear,150,2013-09-07 20:53:00
3:53 PM,93.0,43.0,18,29.89,10.0,SE,10.4,16.1,N/A,,Clear,130,2013-09-07 21:53:00
4:53 PM,89.1,43.0,20,29.89,10.0,SE,10.4,-,N/A,Thunderstorm,Partly Cloudy,140,2013-09-07 22:53:00
5:14 PM,87.8,42.8,21,30.08,10.0,South,8.1,-,N/A,,Overcast,180,2013-09-07 23:14:00
5:37 PM,84.2,44.6,25,30.09,10.0,North,8.1,31.1,0.00,Rain-Thunderstorm,Light Rain,10,2013-09-07 23:37:00
5:53 PM,82.9,45.0,26,29.92,10.0,NNW,6.9,-,0.00,,Mostly Cloudy,330,2013-09-07 23:53:00
6:07 PM,75.2,51.8,44,30.11,10.0,West,16.1,29.9,N/A,Thunderstorm,Mostly Cloudy,270,2013-09-08 00:07:00
6:42 PM,78.8,48.2,34,30.13,10.0,WNW,12.7,16.1,0.00,,Overcast,290,2013-09-08 00:42:00
6:53 PM,77.0,50.0,39,29.96,10.0,NNW,11.5,-,0.00,,Overcast,330,2013-09-08 00:53:00
7:53 PM,78.1,48.0,35,29.88,10.0,North,8.1,-,0.00,,Partly Cloudy,10,2013-09-08 01:53:00
8:53 PM,71.1,48.9,45,29.91,10.0,SW,5.8,-,N/A,,Clear,220,2013-09-08 02:53:00
9:53 PM,64.0,48.9,58,29.92,10.0,WNW,4.6,-,N/A,,Clear,290,2013-09-08 03:53:00
10:53 PM,64.9,50.0,58,29.90,10.0,Calm,Calm,-,N/A,,Clear,0,2013-09-08 04:53:00
11:53 PM,64.0,48.9,58,29.90,10.0,SSE,3.5,-,N/A,,Clear,160,2013-09-08 05:53:00